Terminal Aerodrome Forecast
Issued by NWS

Home | Current Version | Previous Version | Text Only | Print | Product List | Glossary On
Versions: 1 2 3 4 5 6 7 8 9 10 11 12 13 14 15 16 17 18 19 20 21 22 23 24 25 26 27 28 29 30 31 32 33 34 35 36 37 38 39 40 41 42 43 44 45 46 47 48 49 50
000
FTUS45 KBOU 160408 AAC
TAFBJC
TAF AMD
KBJC 160408Z 1604/1624 03007KT P6SM VCSH SCT070 BKN100
     FM160500 04009KT P6SM VCSH SCT030 OVC050
     FM161000 06007KT P6SM OVC015
     FM161600 VRB05KT P6SM SCT015 OVC040
     FM162000 02006KT P6SM SCT050 BKN080
     FM162200 02008KT P6SM VCTS SCT050CB BKN070=

USA.gov is the U.S. government's official web portal to all federal, state and local government web resources and services.